Regional Weather Roundup
Issued by NWS Kansas City/Pleasant Hill, MO

Home | Current Version | Previous Version | Graphics & Text | Print | Product List | Glossary Off
Versions: 1 2 3 4 5 6 7 8 9 10 11 12 13 14 15 16 17 18 19 20 21 22 23 24 25 26 27

000
ASUS43 KEAX 222110
RWREAX

WEATHER ROUNDUP FOR EASTERN KANSAS AND NORTHWEST MISSOURI
NATIONAL WEATHER SERVICE KANSAS CITY/PLEASANT HILL MO
400 PM CDT FRI JUL 22 2016

KSZ040-057-103>105-MOZ028-029-037-043-222200-
...KANSAS CITY METROPOLITAN AREA...

CITY           SKY/WX    TMP DP  RH WIND       PRES   REMARKS
K.C. INTL      PTSUNNY   93  78  61 S13       29.97F HX 108
K.C. DOWNTOWN  SUNNY     94  76  55 S10       29.95F HX 106
LEES SUMMIT    SUNNY     93  75  55 S16       29.99F HX 104
OLATHE - IXD   SUNNY     94  77  57 SE15      29.99F HX 108
OLATHE - OJC   SUNNY     90  77  65 S16       29.99F HX 103
LAWRENCE       SUNNY     95  79  59 SE15G22   29.95F HX 112

$$

MOZ001>008-011>017-020>025-030>033-038>040-044>046-053-054-222200-
...NORTHERN AND CENTRAL MISSOURI...

CITY           SKY/WX    TMP DP  RH WIND       PRES   REMARKS
ST. JOSEPH     SUNNY     92  76  59 S15       29.95F HX 104
MOSBY          CLEAR     90  73  58 SE10      29.97F HX  98
WHITEMAN AFB   MOSUNNY   92  76  58 SW13      29.98F HX 104
CLINTON        SUNNY     91  77  62 S8        30.00F HX 105
SEDALIA        CLOUDY    92  74  55 S12       30.02F HX 101
WARSAW         NOT AVBL
CHILLICOTHE      N/A     89  75  63 S8        29.98F HX  99
KIRKSVILLE     MOSUNNY   89  73  59 SW7       30.01F HX  97

$$

MOZ041-047>049-056>058-063>065-088>090-097-222200-
...EASTERN AND SOUTHERN MISSOURI...

CITY           SKY/WX    TMP DP  RH WIND       PRES   REMARKS
ST. LOUIS INTL CLOUDY    84  71  65 CALM      30.04S
SPIRIT OF STL  CLOUDY    86  73  65 CALM      30.02R HX  93
COLUMBIA       PTSUNNY   87  73  62 SW10      30.02F HX  94
JEFFERSON CITY CLOUDY    89  74  60 W3        29.99F HX  98
ROLLA          CLOUDY    87  74  64 S7        30.03F HX  95
OSAGE BEACH    CLOUDY    89  75  63 CALM      30.04S HX  99
SPRINGFIELD    SUNNY     93  73  52 SW8       30.02F HX 102
BRANSON        PTSUNNY   95  73  49 W6        30.05F HX 105
JOPLIN         SUNNY     95  72  47 SW12      30.01F HX 103
WEST PLAINS    SUNNY     93  71  48 SW5       30.06F HX 100

$$

IAZ060-094-KSZ022-034>040-054-083-096-NEZ052-066-093-222200-
...KANSAS...SOUTHEAST NEBRASKA AND IOWA...

CITY           SKY/WX    TMP DP  RH WIND       PRES   REMARKS
TOPEKA         SUNNY     99  67  35 S17       29.95F HX 103
MANHATTAN      SUNNY    104  69  32 SW15G21   29.92F HX 111
EMPORIA        SUNNY     98  70  40 S15       29.97F HX 105
CHANUTE        SUNNY     96  73  47 S13       29.99F HX 105
WICHITA        MOSUNNY  104  64  27 S16       29.95F HX 107
OMAHA          MOSUNNY   94  79  61 S20       29.92F HX 111
LINCOLN        MOSUNNY   93  75  55 S8        29.93F HX 104
FALLS CITY     SUNNY     96  76  52 S13G21    29.94S HX 109
LAMONI         CLOUDY    88  77  69 SW14      29.97F HX 100
DES MOINES     CLOUDY    91  76  61 SW7       29.95F HX 103

$$





USA.gov is the U.S. government's official web portal to all federal, state and local government web resources and services.